CRCA-Riverwatch is now Calusa Waterkeeper
Menu
Tidal Tidal Caloosahatchee Data Set #4

Basic water quality data are being collected by the Calusa Waterkeeper and Rangers in the Tidal Caloosahatchee. These data include salinity, temperature, dissolved oxygen and specific conductance.



Tidal Table 4 (Print version)
Table
Zone Date Time Station ID Latitude Longitude Parameter Unit Result
Tidal Caloosahatchee 11/08/2017 10:13 A surface 26°43'21.87"N 81°41'47.79"W Temperature Celsius 24.50
Tidal Caloosahatchee 11/08/2017 A mid depth 26°43'21.87"N 81°41'47.79"W Temperature Celsius 24.50
Tidal Caloosahatchee 11/08/2017 A surface 26°43'21.87"N 81°41'47.79"W D.O. ppm 4.54
Tidal Caloosahatchee 11/08/2017 A mid depth 26°43'21.87"N 81°41'47.79"W D.O. ppm 4.51
Tidal Caloosahatchee 11/08/2017 A surface 26°43'21.87"N 81°41'47.79"W D.O. % sat 55.30
Tidal Caloosahatchee 11/08/2017 A mid depth 26°43'21.87"N 81°41'47.79"W D.O. % sat 53.90
Tidal Caloosahatchee 11/08/2017 A surface 26°43'21.87"N 81°41'47.79"W Salinity PSU 0.10
Tidal Caloosahatchee 11/08/2017 A mid depth 26°43'21.87"N 81°41'47.79"W Salinity PSU 0.10
Tidal Caloosahatchee 11/08/2017 A surface 26°43'21.87"N 81°41'47.79"W Sp. cond. uS/cm 288.60
Tidal Caloosahatchee 11/08/2017 A mid depth 26°43'21.87"N 81°41'47.79"W Sp. cond. uS/cm 287.60
Tidal Caloosahatchee 11/08/2017 10:05 B surface 26°43'29.48"N 81°42'24.01"W Temperature Celsius 24.50
Tidal Caloosahatchee 11/08/2017 B mid depth 26°43'29.48"N 81°42'24.01"W Temperature Celsius 24.40
Tidal Caloosahatchee 11/08/2017 B surface 26°43'29.48"N 81°42'24.01"W D.O. ppm 4.49
Tidal Caloosahatchee 11/08/2017 B mid depth 26°43'29.48"N 81°42'24.01"W D.O. ppm 4.53
Tidal Caloosahatchee 11/08/2017 B surface 26°43'29.48"N 81°42'24.01"W D.O. % sat 54.80
Tidal Caloosahatchee 11/08/2017 B mid depth 26°43'29.48"N 81°42'24.01"W D.O. % sat 54.00
Tidal Caloosahatchee 11/08/2017 B surface 26°43'29.48"N 81°42'24.01"W Salinity PSU 0.10
Tidal Caloosahatchee 11/08/2017 B mid depth 26°43'29.48"N 81°42'24.01"W Salinity PSU 0.10
Tidal Caloosahatchee 11/08/2017 B surface 26°43'29.48"N 81°42'24.01"W Sp. cond. uS/cm 287.90
Tidal Caloosahatchee 11/08/2017 B mid depth 26°43'29.48"N 81°42'24.01"W Sp. cond. uS/cm 287.50
Tidal Caloosahatchee 11/08/2017 9:57 C surface 26°43'9.42"N 81°44'22.02"W Temperature Celsius 24.30
Tidal Caloosahatchee 11/08/2017 C mid depth 26°43'9.42"N 81°44'22.02"W Temperature Celsius 24.30
Tidal Caloosahatchee 11/08/2017 C surface 26°43'9.42"N 81°44'22.02"W D.O. ppm 5.01
Tidal Caloosahatchee 11/08/2017 C mid depth 26°43'9.42"N 81°44'22.02"W D.O. ppm 4.80
Tidal Caloosahatchee 11/08/2017 C surface 26°43'9.42"N 81°44'22.02"W D.O. % sat 59.10
Tidal Caloosahatchee 11/08/2017 C mid depth 26°43'9.42"N 81°44'22.02"W D.O. % sat 57.10
Tidal Caloosahatchee 11/08/2017 C surface 26°43'9.42"N 81°44'22.02"W Salinity PSU 0.10
Tidal Caloosahatchee 11/08/2017 C mid depth 26°43'9.42"N 81°44'22.02"W Salinity PSU 0.10
Tidal Caloosahatchee 11/08/2017 C surface 26°43'9.42"N 81°44'22.02"W Sp. cond. uS/cm 288.00
Tidal Caloosahatchee 11/08/2017 C mid depth 26°43'9.42"N 81°44'22.02"W Sp. cond. uS/cm 287.70
Tidal Caloosahatchee 11/08/2017 9:04 D surface 26°42'59.86"N 81°45'42.93"W Temperature Celsius 24.30
Tidal Caloosahatchee 11/08/2017 D mid depth 26°42'59.86"N 81°45'42.93"W Temperature Celsius 24.30
Tidal Caloosahatchee 11/08/2017 D surface 26°42'59.86"N 81°45'42.93"W D.O. ppm 4.71
Tidal Caloosahatchee 11/08/2017 D mid depth 26°42'59.86"N 81°45'42.93"W D.O. ppm 4.60
Tidal Caloosahatchee 11/08/2017 D surface 26°42'59.86"N 81°45'42.93"W D.O. % sat 55.80
Tidal Caloosahatchee 11/08/2017 D mid depth 26°42'59.86"N 81°45'42.93"W D.O. % sat 55.00
Tidal Caloosahatchee 11/08/2017 D surface 26°42'59.86"N 81°45'42.93"W Salinity PSU 0.10
Tidal Caloosahatchee 11/08/2017 D mid depth 26°42'59.86"N 81°45'42.93"W Salinity PSU 0.10
Tidal Caloosahatchee 11/08/2017 D surface 26°42'59.86"N 81°45'42.93"W Sp. cond. uS/cm 290.50
Tidal Caloosahatchee 11/08/2017 D mid depth 26°42'59.86"N 81°45'42.93"W Sp. cond. uS/cm 290.50
Tidal Caloosahatchee 11/08/2017 9:18 E surface 26°41'58.73"N 81°47'7.22"W Temperature Celsius 24.30
Tidal Caloosahatchee 11/08/2017 E mid depth 26°41'58.73"N 81°47'7.22"W Temperature Celsius 24.30
Tidal Caloosahatchee 11/08/2017 E surface 26°41'58.73"N 81°47'7.22"W D.O. ppm 4.47
Tidal Caloosahatchee 11/08/2017 E mid depth 26°41'58.73"N 81°47'7.22"W D.O. ppm 4.53
Tidal Caloosahatchee 11/08/2017 E surface 26°41'58.73"N 81°47'7.22"W D.O. % sat 53.60
Tidal Caloosahatchee 11/08/2017 E mid depth 26°41'58.73"N 81°47'7.22"W D.O. % sat 54.00
Tidal Caloosahatchee 11/08/2017 E surface 26°41'58.73"N 81°47'7.22"W Salinity PSU 0.10
Tidal Caloosahatchee 11/08/2017 E mid depth 26°41'58.73"N 81°47'7.22"W Salinity PSU 0.10
Tidal Caloosahatchee 11/08/2017 E surface 26°41'58.73"N 81°47'7.22"W Sp. cond. uS/cm 292.10
Tidal Caloosahatchee 11/08/2017 E mid depth 26°41'58.73"N 81°47'7.22"W Sp. cond. uS/cm 292.00
Tidal Caloosahatchee 11/08/2017 9:26 F surface 26°41'39.28"N 81°47'46.33"W Temperature Celsius 29.10
Tidal Caloosahatchee 11/08/2017 F mid depth 26°41'39.28"N 81°47'46.33"W Temperature Celsius 29.10
Tidal Caloosahatchee 11/08/2017 F surface 26°41'39.28"N 81°47'46.33"W D.O. ppm 4.45
Tidal Caloosahatchee 11/08/2017 F mid depth 26°41'39.28"N 81°47'46.33"W D.O. ppm 4.18
Tidal Caloosahatchee 11/08/2017 F surface 26°41'39.28"N 81°47'46.33"W D.O. % sat 58.10
Tidal Caloosahatchee 11/08/2017 F mid depth 26°41'39.28"N 81°47'46.33"W D.O. % sat 54.50
Tidal Caloosahatchee 11/08/2017 F surface 26°41'39.28"N 81°47'46.33"W Salinity PSU 0.20
Tidal Caloosahatchee 11/08/2017 F mid depth 26°41'39.28"N 81°47'46.33"W Salinity PSU 0.20
Tidal Caloosahatchee 11/08/2017 F surface 26°41'39.28"N 81°47'46.33"W Sp. cond. uS/cm 342.20
Tidal Caloosahatchee 11/08/2017 F mid depth 26°41'39.28"N 81°47'46.33"W Sp. cond. uS/cm 334.10
Tidal Caloosahatchee 11/08/2017 9:35 G surface 26°41'45.57"N 81°48'40.23"W Temperature Celsius 26.50
Tidal Caloosahatchee 11/08/2017 G mid depth 26°41'45.57"N 81°48'40.23"W Temperature Celsius 24.50
Tidal Caloosahatchee 11/08/2017 G surface 26°41'45.57"N 81°48'40.23"W D.O. ppm 4.54
Tidal Caloosahatchee 11/08/2017 G mid depth 26°41'45.57"N 81°48'40.23"W D.O. ppm 4.41
Tidal Caloosahatchee 11/08/2017 G surface 26°41'45.57"N 81°48'40.23"W D.O. % sat 55.80
Tidal Caloosahatchee 11/08/2017 G mid depth 26°41'45.57"N 81°48'40.23"W D.O. % sat 52.60
Tidal Caloosahatchee 11/08/2017 G surface 26°41'45.57"N 81°48'40.23"W Salinity PSU 0.10
Tidal Caloosahatchee 11/08/2017 G mid depth 26°41'45.57"N 81°48'40.23"W Salinity PSU 0.10
Tidal Caloosahatchee 11/08/2017 G surface 26°41'45.57"N 81°48'40.23"W Sp. cond. uS/cm 309.80
Tidal Caloosahatchee 11/08/2017 G mid depth 26°41'45.57"N 81°48'40.23"W Sp. cond. uS/cm 299.90


Calusa Waterkeeper is a non-profit organization dedicated to the protection of the Caloosahatchee River & Estuary, Lake Okeechobee, Nicodemus Slough, Charlotte Harbor, Estero Bay, the near-shore waters of Lee County, and their watersheds, through education and promotion of responsible use and enjoyment by all people.
Contact us
239-444-8584
info@CalusaWaterkeeper.org
Address
P.O. Box 1165
Ft. Myers, FL 33902
Membership Data and Governance Documents and Newsletters
Copyright © 2017 Calusa Waterkeeper.

Web Page Design, Software, and News Postings
Copyright © 2017 Southern DataStream, Inc. All rights reserved.

CRCA "Riverwatch" is a non-profit organization dedicated to the protection of the Caloosahatchee River and its watershed, through education and promotion of responsible use and enjoyment by all people.



Contact us
239-245-9954
riverwatch@caloosahatchee.org



Address
P.O. Box 2199
LaBelle, FL 33935

Membership Data and Governance Documents
Copyright © 2015 Caloosahatchee River Citizens Association, Inc.


Web Page Design, Software, and News Postings
Copyright © 2015 Southern DataStream, Inc. All rights reserved.